Lafayette, IN

5:51 AM EDT on July 25, 2017 (GMT -0400)
Purdue Univ

Weather History for KLAF - March, 2013

Change the Weather History Date:

Wednesday, March 27, 2013

  Actual Average Record
Temperature  
Mean Temperature 31 °F 45 °F  
Max Temperature 40 °F 55 °F 80 °F (2007)
Min Temperature 21 °F 35 °F 11 °F (1965)
Degree Days  
Heating Degree Days 34 20  
Month to date heating degree days 875 675  
Since 1 July heating degree days 5210 5009  
Cooling Degree Days 0 0  
Month to date cooling degree days 0 0  
Year to date cooling degree days 0 0  
Moisture  
Dew Point 22 °F    
Average Humidity 72    
Maximum Humidity 100    
Minimum Humidity 44    
Precipitation  
Precipitation 0.00 in 0.09 in 1.63 in (1950)
Month to date precipitation 1.24 2.26  
Year to date precipitation 7.19 5.88  
Sea Level Pressure  
Sea Level Pressure 30.32 in    
Wind  
Wind Speed 6 mph (West)    
Max Wind Speed 16 mph    
Max Gust Speed 22 mph    
Visibility 10 miles    
Events      
T = Trace of Precipitation, MM = Missing Value Source: NWS Daily Summary

Daily Weather History Graph

Daily Weather History Graph

Search for Another Location

Airport or City:

Trip Planner

Search our weather history database for the weather conditions in past years. The results will help you decide how hot, cold, wet, or windy it might be!

Date:

Astronomy

Mar. 27, 2013 Rise Set
Actual Time 7:39 AM EDT 8:07 PM EDT
Civil Twilight 7:11 AM EDT 8:34 PM EDT
Nautical Twilight 6:39 AM EDT 9:07 PM EDT
Astronomical Twilight 6:06 AM EDT 9:40 PM EDT
Moon 8:50 PM EDT (3/27) 7:29 AM EDT (3/27)
Length of Visible Light 13h 22m
Length of Day
12h 28m
Full, 100% of the Moon is Illuminated
Mar 27
Full
Apr 3
Last Quarter
Apr 10
New
Apr 18
First Quarter
Apr 25
Full

Hourly Weather History & Observations

Time (EDT) Temp. Windchill Dew Point Humidity Pressure Visibility Wind Dir Wind Speed Gust Speed Precip Events Conditions
12:54 AM 30.0 °F 24.1 °F 24.1 °F 79% 30.28 in 10.0 mi West 5.8 mph - N/A   Mostly Cloudy
1:54 AM 28.9 °F 25.2 °F 23.0 °F 78% 30.29 in 10.0 mi West 3.5 mph - N/A   Overcast
2:54 AM 28.0 °F - 24.1 °F 85% 30.29 in 10.0 mi Calm Calm - N/A   Overcast
3:54 AM 28.0 °F 21.7 °F 23.0 °F 81% 30.29 in 10.0 mi West 5.8 mph - N/A   Overcast
4:54 AM 27.0 °F 20.5 °F 23.0 °F 85% 30.29 in 10.0 mi West 5.8 mph - N/A   Partly Cloudy
5:54 AM 26.1 °F 21.9 °F 23.0 °F 88% 30.29 in 10.0 mi West 3.5 mph - N/A   Clear
6:54 AM 24.1 °F - 21.0 °F 88% 30.30 in 8.0 mi Calm Calm - N/A   Clear
7:54 AM 21.9 °F 17.2 °F 21.0 °F 96% 30.31 in 5.0 mi West 3.5 mph - N/A   Clear
8:54 AM 26.1 °F 21.9 °F 24.1 °F 92% 30.32 in 7.0 mi West 3.5 mph - N/A   Clear
9:54 AM 30.9 °F 25.2 °F 25.0 °F 79% 30.34 in 10.0 mi West 5.8 mph - N/A   Clear
10:54 AM 35.1 °F 31.0 °F 24.1 °F 64% 30.34 in 10.0 mi West 4.6 mph - N/A   Clear
11:54 AM 37.0 °F 33.3 °F 25.0 °F 62% 30.34 in 10.0 mi West 4.6 mph - N/A   Clear
12:54 PM 37.0 °F 30.4 °F 25.0 °F 62% 30.35 in 10.0 mi West 9.2 mph - N/A   Overcast
1:54 PM 37.9 °F 30.9 °F 23.0 °F 55% 30.35 in 10.0 mi WNW 10.4 mph - N/A   Overcast
2:54 PM 39.9 °F 32.9 °F 21.9 °F 49% 30.35 in 10.0 mi NW 11.5 mph - N/A   Overcast
3:54 PM 39.0 °F 31.0 °F 19.0 °F 45% 30.33 in 10.0 mi WNW 13.8 mph - N/A   Clear
4:54 PM 39.0 °F 31.0 °F 19.9 °F 46% 30.32 in 10.0 mi WNW 13.8 mph - N/A   Clear
5:54 PM 37.9 °F 29.6 °F 19.9 °F 48% 30.33 in 10.0 mi West 13.8 mph - N/A   Clear
6:54 PM 37.9 °F 30.9 °F 19.9 °F 48% 30.33 in 10.0 mi West 10.4 mph - N/A   Clear
7:54 PM 35.1 °F 28.6 °F 21.0 °F 57% 30.33 in 10.0 mi WNW 8.1 mph - N/A   Clear
8:54 PM 34.0 °F 31.0 °F 21.0 °F 59% 30.33 in 10.0 mi West 3.5 mph - N/A   Clear
9:54 PM 33.1 °F 30.0 °F 21.9 °F 64% 30.34 in 10.0 mi West 3.5 mph - N/A   Overcast
10:54 PM 33.1 °F 30.0 °F 23.0 °F 66% 30.34 in 10.0 mi West 3.5 mph - N/A   Overcast
11:54 PM 33.1 °F - 23.0 °F 66% 30.34 in 10.0 mi Calm Calm - N/A   Overcast